Regional Weather Roundup
Issued by NWS Jackson, KY

Home | Current Version | Previous Version | Graphics & Text | Print | Product List | Glossary On
Versions: 1 2 3 4 5 6 7 8 9 10 11 12 13 14 15 16 17 18 19 20 21 22 23 24 25 26 27 28 29 30 31 32 33 34 35 36 37 38 39 40 41 42 43 44 45 46 47 48 49 50
000
ASUS43 KJKL 211411
RWRJKL

EAST KENTUCKY HOURLY WEATHER ROUNDUP
NATIONAL WEATHER SERVICE JACKSON KY
900 AM EST SUN DEC 21 2014

NOTE: "FAIR" INDICATES FEW OR NO CLOUDS BELOW 12,000 FEET WITH
NO SIGNIFICANT WEATHER AND/OR OBSTRUCTIONS TO VISIBILITY.

* THESE REPORTS ARE NOT UNDER NWS QUALITY CONTROL AND MAY NOT
  REPORT WEATHER SUCH AS PRECIPITATION AND FOG.

KYZ079-080-083-085-087-088-110-112-115-119-120-211500
...EASTERN KENTUCKY...

CITY           SKY/WX    TMP DP  RH WIND       PRES   REMARKS
JACKSON        SUNNY     27  24  89 E5        30.27S WCI  22
LONDON         SUNNY     27  32 100 CALM      30.27S HAZE
SOMERSET*      SUNNY     25  25 100 CALM      30.30S FOG
MONTICELLO*    SUNNY     24  23  96 CALM      30.30S FOG
MIDDLESBORO*   FOG       25  24  99 CALM      30.28S VSB<1/4
HARLAN APT*    CLOUDY    27  27 100 CALM      30.25F
HAZARD APT*    SUNNY     27  27 100 CALM      30.28
BLACK MTN*       N/A     32  23  69 CALM        N/A
PIKEVILLE APT* SUNNY     27  27 100 CALM      30.27S
BIG SANDY*     SUNNY     28  27  97 CALM      30.29S
MOREHEAD APT*  CLOUDY    32  27  80 NE5       30.31F WCI  27
$$

KYZ035-036-041-042-044-050-067-078-099-211500
...CENTRAL KENTUCKY...

CITY           SKY/WX    TMP DP  RH WIND       PRES   REMARKS
MT STERLING*   SUNNY     28  27  93 E3        30.31S FOG
FLEMING/MASON* CLOUDY    30  27  86 E5        30.31F WCI  25
DANVILLE*      FOG       21  21 100 CALM      30.29F VSB<1/4
RICHMOND*      CLEAR     23  21  93 CALM      30.28S
LEXINGTON      SUNNY     27  25  92 E7        30.29S FOG     WCI  19
FRANKFORT      SUNNY     23  20  88 CALM      30.29S FOG
$$

KYZ091>093-OHZ055-061-077-WVZ005-015-034-035-042-211500
...SOUTHERN OHIO/WEST VIRGINIA...

CITY           SKY/WX    TMP DP  RH WIND       PRES   REMARKS
COVINGTON      MOCLDY    27  21  78 SE3       30.30R HAZE
COLUMBUS       MOCLDY    28  21  75 CALM      30.32S
DAYTON         PTCLDY    26  22  84 SE5       30.30S FOG     WCI  20
WILMINGTON     CLEAR     26  22  84 E5        30.30S FOG     WCI  20
HUNTINGTON     CLOUDY    31  27  85 NE5       30.31S WCI  26
CHARLESTON     MOSUNNY   29  27  92 CALM      30.31R
PINEVILLE*     PTSUNNY   29  29 100 MISG      30.31S
BECKLEY        SUNNY     31  26  82 CALM      30.23R
BLUEFIELD      MOSUNNY   33  27  78 CALM      30.22R
$$

VAZ002-007-008-TNZ017-027-036-066-071-211500
...SOUTHWEST VIRGINIA/EAST TENNESSEE...

CITY           SKY/WX    TMP DP  RH WIND       PRES   REMARKS
WISE*          SUNNY     32  32 100 NE3       30.22S
JONESVILLE*    SUNNY     27  25  93 CALM      30.28S
ABINGDON*      MOSUNNY   37  37  99 CALM      30.23S FOG
BRISTOL        PTSUNNY   39  37  92 N3        30.24S FOG
KNOXVILLE      CLOUDY    39  31  72 N6        30.23F WCI  35
OAK RIDGE      MOSUNNY   33  29  85 CALM      30.26S
CROSSVILLE     SUNNY     32  25  75 CALM      30.22R
NASHVILLE      MOSUNNY   27  26  96 CALM      30.25F FOG
$$

...KEY TO REMARKS...
VSB - VISIBILITY IN MILES
WCI - WIND CHILL INDEX
HX  - HEAT INDEX

$$


USA.gov is the U.S. government's official web portal to all federal, state and local government web resources and services.